This is the latest recevied weather packets stored in our database for station/object W4CKA. If no packets are shown the sender has not sent any weather packets the latest 10 day(s).
| Time | Temp. | Humidity | Pressure | Rain* | Wind** | Luminosity | Snow |
|---|---|---|---|---|---|---|---|
| 1788120852 | 32.22° C | 61% | 1062.3 hPa | 0 mm | - | 521 W/m² | - |
| 1788120247 | 31.11° C | 63% | 1062.3 hPa | 0 mm | - | 575 W/m² | - |
| 1788119641 | 32.22° C | 63% | 1062.2 hPa | 0 mm | - | 477 W/m² | - |
| 1788119040 | 31.11° C | 63% | 1062.4 hPa | 0 mm | - | 525 W/m² | - |
| 1788118434 | 31.11° C | 71% | 1062.5 hPa | 0 mm | - | 464 W/m² | - |
| 1788117829 | 31.11° C | 63% | 1062.6 hPa | 0 mm | - | 557 W/m² | - |
| 1788117225 | 31.67° C | 63% | 1062.9 hPa | 0 mm | - | 470 W/m² | - |
| 1788116622 | 31.67° C | 66% | 1062.9 hPa | 0 mm | - | 714 W/m² | - |
| 1788116022 | 31.11° C | 61% | 1063 hPa | 0 mm | - | 623 W/m² | - |
| 1788115416 | 31.67° C | 61% | 1063.2 hPa | 0 mm | - | 591 W/m² | - |
| 1788114816 | 31.67° C | 66% | 1063.3 hPa | 0 mm | - | 620 W/m² | - |
| 1788114214 | 31.67° C | 67% | 1063.5 hPa | 0 mm | - | 646 W/m² | - |
| 1788113611 | 31.67° C | 65% | 1063.9 hPa | 0 mm | - | 653 W/m² | - |
| 1788113010 | 30° C | 65% | 1064 hPa | 0 mm | - | 625 W/m² | - |
| 1788112410 | 30.56° C | 71% | 1064.2 hPa | 0 mm | - | 520 W/m² | - |
| 1788111807 | 29.44° C | 72% | 1064.4 hPa | 0 mm | - | 607 W/m² | - |
| 1788111202 | 28.33° C | 79% | 1064.4 hPa | 0 mm | - | 647 W/m² | - |
| 1788110601 | 28.33° C | 74% | 1064.6 hPa | 0 mm | - | 185 W/m² | - |
| 1788109998 | 28.89° C | 74% | 1064.8 hPa | 0 mm | - | 179 W/m² | - |
| 1788109397 | 28.89° C | 75% | 1064.8 hPa | 0 mm | - | 334 W/m² | - |
| 1788108792 | 30.56° C | 68% | 1065 hPa | 0 mm | - | 683 W/m² | - |
| 1788108190 | 30° C | 74% | 1064.8 hPa | 0 mm | - | 625 W/m² | - |
| 1788107588 | 29.44° C | 73% | 1065 hPa | 0 mm | - | 623 W/m² | - |
| 1788106985 | 28.89° C | 72% | 1065.2 hPa | 0 mm | - | 652 W/m² | - |
| 1788106385 | 28.89° C | 73% | 1065.3 hPa | 0 mm | - | 621 W/m² | - |
* Rain latest hour (hover to see other rain measurements)
** Current wind speed in m/s (hover to see current wind gust speed)